| time (UTC) | temp C | wind direction | speed KPH | gust KPH | rain 1hr cm | rain 24hr cm | rain mn cm | humidity % | barometer mb |
| 20260503220612 | 22 | 100 | 0.0 | 4.8 | 0.00 | 0.00 | 0.00 | 53 | 1017.3 |
| 20260503220020 | 23 | 318 | 0.0 | 4.8 | 0.00 | 0.00 | 0.00 | 53 | 1017.2 |
| 20260503215510 | 23 | 309 | 1.6 | 4.8 | 0.00 | 0.00 | 0.00 | 53 | 1017.4 |
| 20260503215012 | 23 | 312 | 1.6 | 4.8 | 0.00 | 0.00 | 0.00 | 52 | 1017.3 |
| 20260503214522 | 24 | 354 | 0.0 | 3.2 | 0.00 | 0.00 | 0.00 | 54 | 1017.2 |
| 20260503214009 | 23 | 274 | 0.0 | 4.8 | 0.00 | 0.00 | 0.00 | 55 | 1017.2 |
| 20260503213509 | 23 | 344 | 0.0 | 8.0 | 0.00 | 0.00 | 0.00 | 55 | 1017.1 |
| 20260503213005 | 23 | 340 | 0.0 | 8.0 | 0.00 | 0.00 | 0.00 | 55 | 1017.1 |
| 20260503212508 | 23 | 326 | 1.6 | 6.4 | 0.00 | 0.00 | 0.00 | 54 | 1017.1 |
| 20260503212005 | 24 | 207 | 0.0 | 9.7 | 0.00 | 0.00 | 0.00 | 55 | 1017.1 |
| 20260503211503 | 24 | 321 | 0.0 | 9.7 | 0.00 | 0.00 | 0.00 | 53 | 1017.2 |
| 20260503211004 | 24 | 278 | 1.6 | 9.7 | 0.00 | 0.00 | 0.00 | 52 | 1017.2 |
| 20260503210502 | 24 | 253 | 0.0 | 6.4 | 0.00 | 0.00 | 0.00 | 53 | 1017.2 |
| 20260503210005 | 25 | 96 | 0.0 | 6.4 | 0.00 | 0.00 | 0.00 | 54 | 1017.2 |
| 20260503205502 | 24 | 144 | 0.0 | 4.8 | 0.00 | 0.00 | 0.00 | 56 | 1017.2 |
| 20260503205103 | 24 | 227 | 0.0 | 6.4 | 0.00 | 0.00 | 0.00 | 54 | 1017.2 |
| 20260503205004 | 24 | 318 | 0.0 | 6.4 | 0.00 | 0.00 | 0.00 | 55 | 1017.3 |
| 20260503204508 | 24 | 326 | 0.0 | 6.4 | 0.00 | 0.00 | 0.00 | 56 | 1017.3 |
| 20260503204013 | 24 | 315 | 0.0 | 4.8 | 0.00 | 0.00 | 0.00 | 56 | 1017.4 |
| 20260503203105 | 25 | 144 | 1.6 | 11.3 | 0.00 | 0.00 | 0.00 | 52 | 1017.5 |
| 20260503202555 | 25 | 297 | 0.0 | 11.3 | 0.00 | 0.00 | 0.00 | 55 | 1017.5 |
| 20260503202053 | 25 | 321 | 1.6 | 8.0 | 0.00 | 0.00 | 0.00 | 54 | 1017.5 |
| 20260503201551 | 25 | 88 | 3.2 | 8.0 | 0.00 | 0.00 | 0.00 | 54 | 1017.5 |
| 20260503201052 | 25 | 236 | 1.6 | 9.7 | 0.00 | 0.00 | 0.00 | 51 | 1017.6 |
| 20260503200549 | 25 | 243 | 0.0 | 12.9 | 0.00 | 0.00 | 0.00 | 55 | 1017.6 |
| 20260503200050 | 25 | 268 | 0.0 | 6.4 | 0.00 | 0.00 | 0.00 | 54 | 1017.6 |
| 20260503200003 | 25 | 274 | 0.0 | 6.4 | 0.00 | 0.00 | 0.00 | 55 | 1017.6 |
| 20260503195549 | 25 | 266 | 0.0 | 8.0 | 0.00 | 0.00 | 0.00 | 55 | 1017.7 |
| 20260503195154 | 25 | 13 | 1.6 | 8.0 | 0.00 | 0.00 | 0.00 | 54 | 1017.9 |
| 20260503194554 | 25 | 68 | 1.6 | 9.7 | 0.00 | 0.00 | 0.00 | 56 | 1017.8 |
| 20260503194046 | 25 | 104 | 0.0 | 4.8 | 0.00 | 0.00 | 0.00 | 56 | 1017.9 |
| 20260503193544 | 25 | 160 | 0.0 | 4.8 | 0.00 | 0.00 | 0.00 | 56 | 1017.8 |
| 20260503193043 | 24 | 135 | 1.6 | 4.8 | 0.00 | 0.00 | 0.00 | 56 | 1017.9 |
| 20260503192539 | 24 | 335 | 0.0 | 3.2 | 0.00 | 0.00 | 0.00 | 58 | 1018.0 |
| 20260503192143 | 24 | 135 | 0.0 | 8.0 | 0.00 | 0.00 | 0.00 | 56 | 1018.3 |
| 20260503191538 | 25 | 335 | 1.6 | 8.0 | 0.00 | 0.00 | 0.00 | 54 | 1018.3 |
| 20260503191033 | 25 | 113 | 0.0 | 8.0 | 0.00 | 0.00 | 0.00 | 56 | 1018.4 |
| 20260503190531 | 25 | 304 | 0.0 | 4.8 | 0.00 | 0.00 | 0.00 | 52 | 1018.3 |
| 20260503190042 | 26 | 129 | 0.0 | 4.8 | 0.00 | 0.00 | 0.00 | 52 | 1018.5 |
| 20260503185530 | 26 | 259 | 1.6 | 6.4 | 0.00 | 0.00 | 0.00 | 55 | 1018.5 |
| 20260503185032 | 25 | 258 | 0.0 | 8.0 | 0.00 | 0.00 | 0.00 | 58 | 1018.5 |
| 20260503184530 | 25 | 238 | 0.0 | 9.7 | 0.00 | 0.00 | 0.00 | 57 | 1018.6 |
| 20260503184032 | 26 | 341 | 1.6 | 9.7 | 0.00 | 0.00 | 0.00 | 51 | 1018.6 |
| 20260503183529 | 26 | 170 | 1.6 | 8.0 | 0.00 | 0.00 | 0.00 | 53 | 1018.5 |
| 20260503183026 | 25 | 255 | 1.6 | 11.3 | 0.00 | 0.00 | 0.00 | 54 | 1018.6 |
| 20260503182521 | 25 | 247 | 1.6 | 11.3 | 0.00 | 0.00 | 0.00 | 56 | 1018.6 |
| 20260503182020 | 25 | 331 | 1.6 | 6.4 | 0.00 | 0.00 | 0.00 | 55 | 1018.7 |
| 20260503181521 | 25 | 173 | 0.0 | 6.4 | 0.00 | 0.00 | 0.00 | 59 | 1018.7 |
| 20260503181023 | 24 | 90 | 1.6 | 6.4 | 0.00 | 0.00 | 0.00 | 57 | 1018.6 |
| 20260503180518 | 23 | 108 | 0.0 | 8.0 | 0.00 | 0.00 | 0.00 | 63 | 1018.6 |
| 20260503180018 | 23 | 175 | 1.6 | 8.0 | 0.00 | 0.00 | 0.00 | 58 | 1018.7 |
| 20260503175516 | 24 | 200 | 0.0 | 6.4 | 0.00 | 0.13 | 0.00 | 59 | 1018.8 |
| 20260503175014 | 24 | 321 | 1.6 | 9.7 | 0.00 | 0.13 | 0.00 | 57 | 1018.6 |
| 20260503174517 | 24 | 326 | 0.0 | 9.7 | 0.00 | 0.13 | 0.00 | 62 | 1018.8 |
| 20260503174020 | 23 | 284 | 0.0 | 8.0 | 0.00 | 0.13 | 0.00 | 58 | 1018.6 |
| 20260503173513 | 23 | 313 | 1.6 | 8.0 | 0.00 | 0.13 | 0.00 | 58 | 1018.8 |
| 20260503173012 | 24 | 269 | 0.0 | 6.4 | 0.00 | 0.13 | 0.00 | 59 | 1018.7 |
| 20260503172512 | 25 | 298 | 0.0 | 8.0 | 0.00 | 0.13 | 0.00 | 59 | 1018.8 |
| 20260503172013 | 25 | 287 | 1.6 | 8.0 | 0.00 | 0.13 | 0.00 | 59 | 1018.7 |
| 20260503171513 | 24 | 340 | 1.6 | 6.4 | 0.00 | 0.13 | 0.00 | 58 | 1019.0 |
| 20260503171010 | 25 | 80 | 0.0 | 6.4 | 0.00 | 0.13 | 0.00 | 58 | 1019.1 |
| 20260503170513 | 24 | 113 | 0.0 | 6.4 | 0.00 | 0.13 | 0.00 | 57 | 1019.1 |
| 20260503150534 | 22 | 306 | 0.0 | 6.4 | 0.00 | 0.51 | 0.00 | 72 | 1019.3 |
| 20260503131040 | 16 | 328 | 0.0 | 4.8 | 0.00 | 0.58 | 0.00 | 89 | 1018.6 |
| 20260503130538 | 16 | 127 | 0.0 | 3.2 | 0.00 | 0.58 | 0.00 | 89 | 1018.6 |
| 20260503110505 | 13 | 65 | 0.0 | 0.0 | 0.00 | 0.58 | 0.00 | 93 | 1017.7 |
| 20260503081523 | 15 | 17 | 0.0 | 1.6 | 0.00 | 0.58 | 0.00 | 93 | 1016.1 |
| 20260503081016 | 15 | 314 | 0.0 | 1.6 | 0.00 | 0.58 | 0.00 | 93 | 1016.1 |
| 20260503080613 | 15 | 312 | 0.0 | 3.2 | 0.00 | 0.58 | 0.00 | 93 | 1016.0 |
| 20260503072508 | 15 | 354 | 0.0 | 1.6 | 0.00 | 0.58 | 0.00 | 93 | 1015.8 |
| 20260503072006 | 15 | 327 | 0.0 | 0.0 | 0.00 | 0.58 | 0.00 | 93 | 1015.7 |
| 20260503071510 | 15 | 327 | 0.0 | 0.0 | 0.00 | 0.58 | 0.00 | 93 | 1015.7 |
| 20260503071004 | 15 | 327 | 0.0 | 0.0 | 0.00 | 0.58 | 0.00 | 93 | 1015.7 |
| 20260503070502 | 14 | 326 | 0.0 | 0.0 | 0.00 | 0.58 | 0.00 | 93 | 1015.6 |
| 20260503055051 | 15 | 328 | 0.0 | 0.0 | 0.00 | 0.58 | 0.00 | 92 | 1015.5 |
| 20260503054549 | 15 | 328 | 0.0 | 0.0 | 0.00 | 0.58 | 0.00 | 92 | 1015.6 |
| 20260503054050 | 15 | 328 | 0.0 | 0.0 | 0.00 | 0.58 | 0.00 | 92 | 1015.6 |
| 20260503053551 | 15 | 328 | 0.0 | 0.0 | 0.00 | 0.58 | 0.00 | 92 | 1015.5 |
| 20260503053048 | 15 | 328 | 0.0 | 1.6 | 0.00 | 0.58 | 0.00 | 92 | 1015.6 |
| 20260503052645 | 15 | 328 | 0.0 | 1.6 | 0.00 | 0.58 | 0.00 | 92 | 1015.4 |
| 20260503052040 | 15 | 234 | 0.0 | 0.0 | 0.00 | 0.58 | 0.00 | 92 | 1015.4 |
| 20260503051542 | 15 | 234 | 0.0 | 1.6 | 0.00 | 0.58 | 0.00 | 92 | 1015.3 |
| 20260503051041 | 15 | 235 | 0.0 | 1.6 | 0.00 | 0.58 | 0.00 | 92 | 1015.3 |
| 20260503050539 | 15 | 244 | 0.0 | 1.6 | 0.00 | 0.58 | 0.00 | 92 | 1015.3 |
| 20260503050051 | 15 | 336 | 0.0 | 0.0 | 0.00 | 0.58 | 0.00 | 92 | 1015.3 |
| 20260503045531 | 15 | 336 | 0.0 | 1.6 | 0.00 | 0.58 | 0.00 | 92 | 1015.3 |
| 20260503045032 | 15 | 335 | 0.0 | 1.6 | 0.00 | 0.58 | 0.00 | 92 | 1015.2 |
| 20260503044538 | 15 | 106 | 0.0 | 1.6 | 0.00 | 0.58 | 0.00 | 91 | 1015.1 |
| 20260503044034 | 15 | 131 | 0.0 | 1.6 | 0.00 | 0.58 | 0.00 | 92 | 1015.1 |
| 20260503043524 | 15 | 221 | 0.0 | 1.6 | 0.00 | 0.58 | 0.00 | 91 | 1015.0 |
| 20260503043023 | 15 | 32 | 0.0 | 1.6 | 0.00 | 0.58 | 0.00 | 91 | 1015.1 |
| 20260503042522 | 15 | 1 | 0.0 | 0.0 | 0.00 | 0.58 | 0.00 | 91 | 1014.9 |
| 20260503042022 | 15 | 1 | 0.0 | 0.0 | 0.00 | 0.58 | 0.00 | 91 | 1014.7 |
| 20260503041520 | 15 | 1 | 0.0 | 1.6 | 0.00 | 0.58 | 0.00 | 91 | 1014.8 |
| 20260503041019 | 15 | 321 | 0.0 | 1.6 | 0.00 | 0.58 | 0.00 | 91 | 1014.7 |
| 20260503040517 | 16 | 167 | 0.0 | 3.2 | 0.00 | 0.58 | 0.00 | 91 | 1014.7 |
| 20260503040016 | 16 | 53 | 0.0 | 3.2 | 0.00 | 0.58 | 0.00 | 91 | 1014.7 |
| 20260503035014 | 16 | 201 | 0.0 | 1.6 | 0.00 | 0.58 | 0.58 | 91 | 1014.6 |
| 20260503034512 | 16 | 311 | 0.0 | 1.6 | 0.00 | 0.58 | 0.58 | 91 | 1014.6 |
| 20260503034017 | 16 | 354 | 0.0 | 1.6 | 0.00 | 0.58 | 0.58 | 91 | 1014.4 |
| 20260503033508 | 16 | 340 | 0.0 | 0.0 | 0.00 | 0.58 | 0.58 | 90 | 1014.6 |
| 20260503033007 | 16 | 340 | 0.0 | 1.6 | 0.00 | 0.58 | 0.58 | 90 | 1014.5 |
| 20260503032506 | 16 | 340 | 0.0 | 1.6 | 0.00 | 0.58 | 0.58 | 90 | 1014.4 |
| 20260503032013 | 16 | 306 | 0.0 | 3.2 | 0.00 | 0.58 | 0.58 | 90 | 1014.4 |
| 20260503031504 | 16 | 98 | 0.0 | 3.2 | 0.00 | 0.58 | 0.58 | 90 | 1014.3 |
| 20260503031002 | 16 | 11 | 0.0 | 1.6 | 0.00 | 0.58 | 0.58 | 90 | 1014.3 |
| 20260503030602 | 16 | 11 | 0.0 | 6.4 | 0.00 | 0.58 | 0.58 | 90 | 1014.3 |
| 20260503025600 | 16 | 331 | 0.0 | 1.6 | 0.00 | 0.58 | 0.58 | 89 | 1014.0 |
| 20260503025100 | 17 | 331 | 0.0 | 3.2 | 0.00 | 0.58 | 0.58 | 89 | 1013.9 |
| 20260503025002 | 17 | 136 | 0.0 | 3.2 | 0.00 | 0.58 | 0.58 | 89 | 1013.9 |
| 20260503024554 | 17 | 356 | 0.0 | 4.8 | 0.00 | 0.58 | 0.58 | 89 | 1014.0 |
| 20260503024059 | 17 | 327 | 0.0 | 3.2 | 0.00 | 0.58 | 0.58 | 90 | 1014.0 |
| 20260503023554 | 17 | 150 | 0.0 | 1.6 | 0.00 | 0.58 | 0.58 | 90 | 1013.9 |
| 20260503023056 | 17 | 240 | 0.0 | 3.2 | 0.00 | 0.58 | 0.58 | 90 | 1014.0 |
| 20260503022552 | 17 | 98 | 0.0 | 3.2 | 0.00 | 0.58 | 0.58 | 90 | 1013.9 |
| 20260503022050 | 17 | 249 | 0.0 | 3.2 | 0.00 | 0.58 | 0.58 | 90 | 1013.9 |
| 20260503021551 | 17 | 2 | 0.0 | 6.4 | 0.00 | 0.58 | 0.58 | 90 | 1013.9 |
| 20260503021049 | 17 | 345 | 0.0 | 8.0 | 0.00 | 0.58 | 0.58 | 90 | 1013.9 |
| 20260503020549 | 17 | 295 | 0.0 | 8.0 | 0.00 | 0.58 | 0.58 | 90 | 1013.8 |
| 20260503020057 | 17 | 94 | 0.0 | 3.2 | 0.00 | 0.58 | 0.58 | 90 | 1013.8 |
| 20260503020004 | 17 | 319 | 0.0 | 3.2 | 0.00 | 0.58 | 0.58 | 90 | 1013.8 |
| 20260503015546 | 17 | 96 | 0.0 | 1.6 | 0.00 | 0.58 | 0.58 | 90 | 1013.8 |
| 20260503015043 | 17 | 355 | 0.0 | 3.2 | 0.00 | 0.58 | 0.58 | 90 | 1013.7 |
| 20260503014553 | 17 | 94 | 0.0 | 9.7 | 0.00 | 0.58 | 0.58 | 90 | 1013.6 |
| 20260503014043 | 17 | 69 | 0.0 | 9.7 | 0.00 | 0.58 | 0.58 | 90 | 1013.4 |
| 20260503013544 | 17 | 7 | 0.0 | 1.6 | 0.00 | 0.58 | 0.58 | 90 | 1013.5 |
| 20260503013043 | 17 | 31 | 0.0 | 3.2 | 0.00 | 0.58 | 0.58 | 90 | 1013.4 |
| 20260503012027 | 17 | 236 | 0.0 | 3.2 | 0.00 | 0.58 | 0.58 | 90 | 1013.3 |
| 20260503011524 | 17 | 281 | 0.0 | 3.2 | 0.00 | 0.58 | 0.58 | 90 | 1013.2 |
| 20260503011030 | 17 | 350 | 0.0 | 3.2 | 0.00 | 0.58 | 0.58 | 90 | 1013.1 |
| 20260503010515 | 17 | 312 | 0.0 | 3.2 | 0.00 | 0.58 | 0.58 | 90 | 1013.0 |
| 20260503010017 | 17 | 114 | 0.0 | 4.8 | 0.00 | 0.58 | 0.58 | 90 | 1013.0 |
| 20260503005519 | 17 | 282 | 0.0 | 4.8 | 0.00 | 0.58 | 0.58 | 90 | 1013.0 |
| 20260503004112 | 17 | 176 | 0.0 | 6.4 | 0.00 | 0.58 | 0.58 | 91 | 1012.8 |
| 20260503003508 | 17 | 334 | 0.0 | 4.8 | 0.00 | 0.58 | 0.58 | 91 | 1012.7 |
| 20260503003011 | 17 | 307 | 0.0 | 3.2 | 0.00 | 0.58 | 0.58 | 91 | 1012.6 |
| 20260503002510 | 17 | 352 | 0.0 | 1.6 | 0.00 | 0.58 | 0.58 | 91 | 1012.5 |
| 20260503002008 | 17 | 260 | 0.0 | 8.0 | 0.00 | 0.58 | 0.58 | 90 | 1012.3 |
| 20260503001505 | 17 | 342 | 0.0 | 8.0 | 0.00 | 0.58 | 0.58 | 90 | 1012.1 |
| 20260503001001 | 17 | 237 | 0.0 | 8.0 | 0.00 | 0.58 | 0.58 | 90 | 1012.1 |
| 20260503000503 | 17 | 239 | 0.0 | 8.0 | 0.00 | 0.58 | 0.58 | 90 | 1012.0 |
| 20260503000112 | 17 | 264 | 0.0 | 4.8 | 0.00 | 0.58 | 0.58 | 90 | 1011.9 |
| 20260502235559 | 17 | 168 | 0.0 | 3.2 | 0.00 | 0.58 | 0.58 | 90 | 1011.9 |
| 20260502235503 | 17 | 258 | 0.0 | 3.2 | 0.00 | 0.58 | 0.58 | 90 | 1011.9 |
| 20260502235103 | 18 | 236 | 1.6 | 4.8 | 0.00 | 0.58 | 0.58 | 90 | 1011.8 |
| 20260502234559 | 18 | 310 | 0.0 | 8.0 | 0.00 | 0.58 | 0.58 | 90 | 1011.5 |
| 20260502234059 | 18 | 338 | 0.0 | 11.3 | 0.00 | 0.58 | 0.58 | 90 | 1011.1 |
| 20260502233555 | 18 | 253 | 0.0 | 11.3 | 0.00 | 0.58 | 0.58 | 90 | 1011.2 |
| 20260502233052 | 18 | 321 | 0.0 | 6.4 | 0.00 | 0.58 | 0.58 | 90 | 1011.2 |
| 20260502232551 | 18 | 332 | 1.6 | 4.8 | 0.00 | 0.58 | 0.58 | 90 | 1011.2 |
| 20260502231612 | 18 | 333 | 1.6 | 6.4 | 0.00 | 0.58 | 0.58 | 90 | 1010.8 |
| 20260502231048 | 18 | 203 | 1.6 | 6.4 | 0.00 | 0.58 | 0.58 | 90 | 1010.8 |
| 20260502230545 | 19 | 316 | 0.0 | 4.8 | 0.00 | 0.58 | 0.58 | 90 | 1010.5 |
| 20260502230050 | 19 | 195 | 0.0 | 9.7 | 0.00 | 0.58 | 0.58 | 90 | 1010.5 |
| 20260502225544 | 19 | 313 | 1.6 | 12.9 | 0.00 | 0.58 | 0.58 | 89 | 1010.6 |
| 20260502225048 | 20 | 96 | 1.6 | 12.9 | 0.00 | 0.58 | 0.58 | 89 | 1010.6 |
| 20260502224554 | 20 | 101 | 0.0 | 9.7 | 0.00 | 0.58 | 0.58 | 89 | 1010.4 |
| 20260502224043 | 21 | 323 | 0.0 | 9.7 | 0.00 | 0.58 | 0.58 | 89 | 1010.2 |
| 20260502223552 | 21 | 231 | 0.0 | 3.2 | 0.00 | 0.58 | 0.58 | 89 | 1010.1 |
| 20260502223041 | 21 | 303 | 0.0 | 8.0 | 0.00 | 0.58 | 0.58 | 89 | 1009.9 |
| 20260502222541 | 21 | 276 | 0.0 | 8.0 | 0.00 | 0.58 | 0.58 | 89 | 1009.8 |
| 20260502222041 | 21 | 268 | 0.0 | 6.4 | 0.00 | 0.58 | 0.58 | 89 | 1009.7 |
| 20260502221540 | 21 | 109 | 0.0 | 4.8 | 0.00 | 0.58 | 0.58 | 89 | 1009.3 |
| 20260502221040 | 21 | 202 | 0.0 | 9.7 | 0.00 | 0.58 | 0.58 | 90 | 1009.1 |